Weather History for Jersey, United Kingdom

Change the Weather History Date:

Saturday, November 30, 2013

  Actual Average Record
Temperature  
Mean Temperature 46 °F -  
Max Temperature 48 °F 46 °F 55 °F (2001)
Min Temperature 44 °F 40 °F 32 °F (2010)
Degree Days  
Heating Degree Days 19    
Moisture  
Dew Point 39 °F    
Average Humidity 72    
Maximum Humidity 81    
Minimum Humidity 59    
Precipitation  
Precipitation 0.00 in - - ()
Sea Level Pressure  
Sea Level Pressure 30.35 in    
Wind  
Wind Speed 13 mph ()    
Max Wind Speed 24 mph    
Max Gust Speed 29 mph    
Visibility 7.8 miles    
Events Rain    
Averages and records for this station are not official NWS values.
T = Trace of Precipitation, MM = Missing Value Source: Averaged Metar Reports

Daily Weather History Graph

Daily Weather History Graph

Search for Another Location

Airport:

Trip Planner

Search our weather history database for the weather conditions in past years. The results will help you decide how hot, cold, wet, or windy it might be!

Date:

Astronomy

Nov. 30, 2013 Rise Set
Actual Time 7:41 AM GMT 4:13 PM GMT
Civil Twilight 7:04 AM GMT 4:50 PM GMT
Nautical Twilight 6:24 AM GMT 5:30 PM GMT
Astronomical Twilight 5:46 AM GMT 6:08 PM GMT
Moon 4:22 AM GMT (11/30) 2:39 PM GMT (11/30)
Length of Visible Light 9h 45m
Length of Day
8h 32m
Waning Crescent, 8% of the Moon is Illuminated
Nov 30
Waning Crescent
Dec 3
New
Dec 9
First Quarter
Dec 17
Full
Dec 25
Last Quarter

Hourly Weather History & Observations

Time (GMT) Temp. Windchill Dew Point Humidity Pressure Visibility Wind Dir Wind Speed Gust Speed Precip Events Conditions
12:00 AM 49 °F - 39 °F 59% 30.30 in 19 mi NNW 18.4 mph - -  
3:00 AM 48 °F - 39 °F 63% 30.28 in 19 mi NNW 23.0 mph - -   Partly Cloudy
3:50 AM 48.2 °F - 37.4 °F 66% 30.24 in 6.2 mi North 21.9 mph - N/A   Scattered Clouds
4:20 AM 48.2 °F - 37.4 °F 66% 30.27 in 6.2 mi North 12.7 mph 28.8 mph N/A   Scattered Clouds
4:50 AM 48.2 °F - 37.4 °F 66% 30.27 in 6.2 mi North 24.2 mph - N/A   Scattered Clouds
5:20 AM 48.2 °F - 37.4 °F 66% 30.27 in 6.2 mi North 13.8 mph - N/A   Scattered Clouds
5:50 AM 48.2 °F - 37.4 °F 66% 30.27 in 6.2 mi North 19.6 mph - N/A   Scattered Clouds
6:00 AM 47 °F - 38 °F 61% 30.28 in 19 mi North 18.4 mph - - Rain Light Rain Showers
6:20 AM 46.4 °F 39.8 °F 37.4 °F 71% 30.27 in 6.2 mi NNE 16.1 mph - N/A   Scattered Clouds
6:50 AM 46.4 °F 39.8 °F 35.6 °F 66% 30.30 in 6.2 mi NNE 16.1 mph - N/A   Scattered Clouds
7:20 AM 46.4 °F 38.3 °F 37.4 °F 71% 30.30 in 6.2 mi NNE 23.0 mph - N/A   Mostly Cloudy
7:50 AM 46.4 °F 40.4 °F 37.4 °F 71% 30.30 in 6.2 mi North 13.8 mph - N/A   Mostly Cloudy
8:20 AM 46.4 °F 41.1 °F 37.4 °F 71% 30.30 in 6.2 mi NNE 11.5 mph - N/A   Mostly Cloudy
8:50 AM 46.4 °F 40.1 °F 37.4 °F 71% 30.33 in 6.2 mi NNE 15.0 mph - N/A   Partly Cloudy
9:00 AM 47 °F - 38 °F 60% 30.34 in 19 mi NNE 15.0 mph - - Rain Light Rain Showers
9:20 AM 46.4 °F 40.7 °F 39.2 °F 76% 30.33 in 6.2 mi North 12.7 mph - N/A   Mostly Cloudy
9:50 AM 46.4 °F 39.5 °F 39.2 °F 76% 30.33 in 6.2 mi NNE 17.3 mph - N/A   Mostly Cloudy
10:20 AM 46.4 °F 40.7 °F 39.2 °F 76% 30.33 in 6.2 mi NNE 12.7 mph - N/A   Mostly Cloudy
10:50 AM 46.4 °F 40.7 °F 39.2 °F 76% 30.36 in 6.2 mi NNE 12.7 mph - N/A   Mostly Cloudy
11:20 AM 46.4 °F 41.5 °F 37.4 °F 71% 30.36 in 6.2 mi NE 10.4 mph - N/A   Mostly Cloudy
11:50 AM 48.2 °F - 39.2 °F 71% 30.33 in 6.2 mi NNE 11.5 mph - N/A   Mostly Cloudy
12:00 PM 47 °F - 39 °F 65% 30.36 in 22 mi NE 10.4 mph - -   Partly Cloudy
12:20 PM 48.2 °F - 39.2 °F 71% 30.36 in 6.2 mi NNE 9.2 mph - N/A   Mostly Cloudy
12:50 PM 46.4 °F 41.5 °F 39.2 °F 76% 30.36 in 6.2 mi NNE 10.4 mph - N/A   Mostly Cloudy
1:20 PM 46.4 °F 40.7 °F 39.2 °F 76% 30.36 in 6.2 mi NE 12.7 mph - N/A   Mostly Cloudy
1:50 PM 46.4 °F 40.7 °F 39.2 °F 76% 30.36 in 6.2 mi NNE 12.7 mph - N/A   Mostly Cloudy
2:20 PM 46.4 °F 41.1 °F 39.2 °F 76% 30.36 in 6.2 mi NNE 11.5 mph - N/A   Mostly Cloudy
2:50 PM 46.4 °F 41.5 °F 39.2 °F 76% 30.36 in 6.2 mi North 10.4 mph - N/A   Mostly Cloudy
3:00 PM 47 °F - 38 °F 63% 30.39 in 22 mi NNE 10.4 mph - -   Mostly Cloudy
3:20 PM 46.4 °F 42.9 °F 39.2 °F 76% 30.36 in 6.2 mi NNE 6.9 mph - N/A   Mostly Cloudy
3:50 PM 46.4 °F 42.9 °F 39.2 °F 76% 30.39 in 6.2 mi NNE 6.9 mph - N/A   Mostly Cloudy
4:20 PM 46.4 °F 43.5 °F 39.2 °F 76% 30.39 in 6.2 mi NE 5.8 mph - N/A   Mostly Cloudy
4:50 PM 44.6 °F 42.2 °F 39.2 °F 81% 30.39 in 6.2 mi ENE 4.6 mph - N/A   Mostly Cloudy
5:20 PM 44.6 °F 40.2 °F 39.2 °F 81% 30.42 in 6.2 mi NE 8.1 mph - N/A   Scattered Clouds
5:50 PM 46.4 °F 42.4 °F 41.0 °F 81% 30.42 in 6.2 mi NE 8.1 mph - N/A   Mostly Cloudy
6:00 PM 46 °F - 40 °F 74% 30.43 in 19 mi NE 8.1 mph - -   Mostly Cloudy
6:20 PM 46.4 °F 43.5 °F 41.0 °F 81% 30.42 in 6.2 mi NE 5.8 mph - N/A   Scattered Clouds
6:50 PM 46.4 °F 42.9 °F 41.0 °F 81% 30.42 in 6.2 mi NE 6.9 mph - N/A   Mostly Cloudy
7:20 PM 46.4 °F 41.9 °F 41.0 °F 81% 30.42 in 6.2 mi NE 9.2 mph - N/A   Mostly Cloudy
7:50 PM 46.4 °F 42.4 °F 41.0 °F 81% 30.42 in 6.2 mi ENE 8.1 mph - N/A   Mostly Cloudy
8:20 PM 46.4 °F 42.4 °F 41.0 °F 81% 30.45 in 6.2 mi NNE 8.1 mph - N/A   Mostly Cloudy
9:00 PM 47 °F - 39 °F 67% 30.47 in 22 mi NNE 8.1 mph - -   Mostly Cloudy